Regional Weather Roundup
Issued by NWS

Home | Current Version | Previous Version | Graphics & Text | Print | Product List | Glossary On
Versions: 1 2 3 4 5 6 7 8 9 10 11 12 13 14 15 16 17 18 19 20 21 22 23 24 25 26 27 28 29 30 31 32 33 34 35 36 37 38 39 40 41 42 43 44 45 46 47 48 49 50
740
ASUS44 KJAN 231903
RWRMS

MISSISSIPPI HOURLY WEATHER ROUNDUP
NATIONAL WEATHER SERVICE JACKSON MS
200 PM CDT THU OCT 23 2014

NOTE: "FAIR: INDICATES FEW OR NO CLOUDS BELOW 12,000 FEET WITH NO
SIGNIFICANT WEATHER AND/OR OBSTRUCTIONS TO VISIBILITY.

MSZ001>002-007>008-010>013-018>021-025>028-034>036-232000-
NORTHWEST MISSISSIPPI

CITY           SKY/WX    TMP DP  RH WIND       PRES   REMARKS
CLARKSDALE     FAIR      61  46  59 CALM      30.15F
CLEVELAND      FAIR      62  48  59 N5        30.13F
GREENWOOD      CLOUDY    64  45  49 N3        30.13
GREENVILLE     CLOUDY    63  47  55 N7        30.13F
GRENADA          N/A    N/A N/A N/A MISG        N/A
OLIVE BRANCH   PTSUNNY   61  43  51 N5        30.15F
OXFORD         FAIR      63  41  45 NW5       30.15F
TUNICA         CLOUDY    63  45  51 NW5       30.16F
$$

MSZ003>006-009-014>017-022>024-029>033-037>039-232000-
NORTHEAST MISSISSIPPI

CITY           SKY/WX    TMP DP  RH WIND       PRES   REMARKS
COLUMBUS AFB   PTSUNNY   65  45  48 NE3       30.11F
CORINTH        FAIR      64  45  48 NW6       30.12F
GOLDN TRIANGLE PTSUNNY   66  39  37 N5        30.10F
STARKVILLE     FAIR      64  43  45 CALM      30.12F
TUPELO         PTSUNNY   66  44  45 VRB3      30.12F
$$

MSZ040-058-232000-
CENTRAL MISSISSIPPI

CITY           SKY/WX    TMP DP  RH WIND       PRES   REMARKS
JACKSON INTL   PTSUNNY   68  47  46 NW8       30.11F
JACKSON HAWKNS CLOUDY    67  41  38 VRB3      30.12F
MERIDIAN KEY   PTSUNNY   70  38  31 VRB3      30.09F
MERIDIAN NAS   MOSUNNY   69  39  33 CALM      30.09F
RAYMOND        FAIR      66  63  88 MISG      30.13S
VICKSBURG      CLOUDY    68  46  45 VRB6      30.12F
$$

MSZ059>079-232000-
SOUTH MISSISSIPPI

CITY           SKY/WX    TMP DP  RH WIND       PRES   REMARKS
BROOKHAVEN     FAIR      68  43  40 N7        30.12F
COLUMBIA         N/A    N/A N/A N/A MISG        N/A
HATTIESBURG    SUNNY     72  41  32 CALM      30.08F
MCCOMB         PTSUNNY   71  41  33 N7        30.09F HAZE
NATCHEZ        CLOUDY    66  46  48 NE7       30.11F
PINE BELT      SUNNY     72  43  35 CALM      30.09F
$$

MSZ080>082-232000-
COASTAL MISSISSIPPI

CITY           SKY/WX    TMP DP  RH WIND       PRES   REMARKS
BAY ST LOUIS   SUNNY     73  39  29 NE7       30.06F
BILOXI         SUNNY     74  44  33 N7        30.05F
PASCAGOULA     SUNNY     75  46  35 VRB7      30.05F
GULFPORT       SUNNY     75  45  34 VRB6      30.04F
$$



USA.gov is the U.S. government's official web portal to all federal, state and local government web resources and services.